CW9254 Weather Reports


Display with metric or nautical units.
time (UTC)temp
F
wind
direction
speed
MPH
gust
MPH
rain 1hr
in
rain 24hr
in
rain mn
in
humidity
%
barometer
mb
20260510175503 44 339 0.0 3.0 0.00 0.01 0.00 92 1030.6
20260510175003 44 359 0.0 3.0 0.00 0.01 0.00 92 1030.5
20260510174503 45 339 0.0 3.0 0.00 0.01 0.00 92 1030.6
20260510174002 45 339 0.0 2.0 0.00 0.01 0.00 92 1030.5
20260510173503 45 339 1.0 2.0 0.00 0.01 0.00 92 1030.6
20260510173002 45 339 0.0 2.0 0.00 0.01 0.00 91 1030.6
20260510172503 45 338 1.0 2.0 0.00 0.01 0.00 91 1030.6
20260510172005 45 359 0.0 2.0 0.00 0.01 0.00 91 1030.6
20260510171506 45 337 0.0 2.0 0.00 0.01 0.00 91 1030.5
20260510171003 45 337 0.0 2.0 0.00 0.01 0.00 91 1030.6
20260510170503 45 337 0.0 2.0 0.00 0.01 0.00 91 1030.7
20260510170005 45 337 0.0 2.0 0.00 0.01 0.00 91 1030.5
20260510165503 45 337 0.0 2.0 0.00 0.01 0.00 91 1030.6
20260510165003 45 337 0.0 2.0 0.00 0.01 0.00 91 1030.6
20260510164511 46 337 0.0 2.0 0.00 0.01 0.00 91 1030.6
20260510164002 46 336 0.0 3.0 0.00 0.01 0.00 91 1030.6
20260510163502 46 336 1.0 3.0 0.00 0.01 0.00 91 1030.6
20260510163003 46 336 0.0 3.0 0.00 0.01 0.00 91 1030.7
20260510162504 46 335 0.0 2.0 0.00 0.01 0.00 91 1030.7
20260510162002 46 335 1.0 2.0 0.00 0.01 0.00 91 1030.7
20260510161502 46 333 1.0 2.0 0.00 0.01 0.00 91 1030.6
20260510161003 46 328 1.0 2.0 0.00 0.01 0.00 91 1030.7
20260510160503 46 325 1.0 3.0 0.00 0.01 0.00 91 1030.7
20260510160005 46 322 1.0 3.0 0.00 0.01 0.00 91 1030.7
20260510155502 46 324 1.0 2.0 0.00 0.01 0.00 91 1030.8
20260510155004 46 319 0.0 2.0 0.00 0.01 0.00 91 1030.8
20260510154503 46 318 1.0 2.0 0.00 0.01 0.00 91 1030.7
20260510154003 46 318 0.0 2.0 0.00 0.01 0.00 91 1030.9
20260510153502 47 317 1.0 2.0 0.00 0.01 0.00 91 1030.8
20260510153006 47 316 1.0 3.0 0.00 0.01 0.00 91 1030.8
20260510152504 47 313 1.0 3.0 0.00 0.01 0.00 91 1031.0
20260510152002 47 297 1.0 2.0 0.00 0.01 0.00 91 1030.9
20260510151504 47 278 0.0 2.0 0.00 0.01 0.00 91 1030.9
20260510151005 47 275 1.0 2.0 0.00 0.01 0.00 91 1030.9
20260510150503 47 270 0.0 2.0 0.00 0.01 0.00 91 1030.9
20260510150005 47 258 0.0 2.0 0.00 0.01 0.00 91 1031.0
20260510145506 47 251 0.0 2.0 0.00 0.01 0.00 91 1031.0
20260510145004 47 249 0.0 2.0 0.00 0.01 0.00 91 1031.1
20260510144506 47 249 0.0 2.0 0.00 0.01 0.00 91 1031.0
20260510144003 47 359 0.0 2.0 0.00 0.01 0.00 90 1031.0
20260510143502 47 195 0.0 2.0 0.00 0.01 0.00 90 1031.0
20260510143005 47 194 0.0 2.0 0.00 0.01 0.00 90 1031.0
20260510142502 47 194 0.0 1.0 0.00 0.01 0.00 90 1031.0
20260510142003 47 194 0.0 1.0 0.00 0.01 0.00 90 1031.1
20260510141503 47 194 0.0 1.0 0.00 0.01 0.00 90 1031.0
20260510141006 47 194 0.0 2.0 0.00 0.01 0.00 90 1031.1
20260510140503 47 194 0.0 2.0 0.00 0.01 0.00 90 1031.0
20260510140009 47 194 0.0 2.0 0.00 0.01 0.00 90 1031.1
20260510135510 47 193 0.0 2.0 0.00 0.01 0.00 89 1031.0
20260510135006 47 193 0.0 1.0 0.00 0.01 0.00 89 1031.0
20260510134506 47 193 0.0 2.0 0.00 0.01 0.00 89 1031.0
20260510134006 48 193 0.0 2.0 0.00 0.01 0.00 89 1031.0
20260510133505 48 193 0.0 1.0 0.00 0.01 0.00 89 1031.0
20260510133009 48 193 0.0 2.0 0.00 0.01 0.00 89 1031.1
20260510132506 48 191 0.0 1.0 0.00 0.01 0.00 89 1031.1
20260510132006 48 192 0.0 2.0 0.00 0.01 0.00 89 1031.1
20260510131505 48 192 0.0 2.0 0.00 0.01 0.00 89 1031.1
20260510131005 48 191 0.0 1.0 0.00 0.01 0.00 89 1030.9
20260510130505 48 191 0.0 2.0 0.00 0.01 0.00 89 1030.9
20260510130011 48 191 0.0 2.0 0.00 0.01 0.00 89 1030.9
20260510125505 49 191 0.0 1.0 0.00 0.01 0.01 88 1031.0
20260510125005 49 191 0.0 1.0 0.00 0.01 0.01 88 1031.0
20260510124507 49 193 0.0 2.0 0.00 0.01 0.01 87 1031.2
20260510124007 49 188 0.0 2.0 0.00 0.01 0.01 87 1031.2
20260510123507 49 187 0.0 3.0 0.00 0.01 0.01 87 1031.1
20260510123005 49 187 0.0 3.0 0.00 0.01 0.01 87 1031.3
20260510122509 49 187 0.0 2.0 0.00 0.01 0.01 87 1031.2
20260510122006 50 187 0.0 1.0 0.00 0.01 0.01 86 1031.2
20260510121505 50 187 0.0 1.0 0.00 0.01 0.01 86 1031.1
20260510121006 50 186 0.0 2.0 0.00 0.01 0.01 86 1031.1
20260510120506 50 187 0.0 1.0 0.00 0.01 0.01 86 1031.1
20260510120007 50 187 0.0 1.0 0.00 0.01 0.01 85 1031.1
20260510115504 51 187 0.0 1.0 0.00 0.01 0.01 85 1031.1
20260510115004 51 188 0.0 1.0 0.00 0.01 0.01 85 1031.3
20260510114504 51 188 0.0 1.0 0.00 0.01 0.01 85 1031.3
20260510114004 51 187 0.0 2.0 0.00 0.01 0.01 85 1031.4
20260510113504 52 187 0.0 2.0 0.00 0.01 0.01 84 1031.2
20260510113005 52 187 0.0 0.0 0.00 0.01 0.01 84 1031.2
20260510112504 52 187 0.0 0.0 0.00 0.01 0.01 85 1031.2
20260510112005 52 187 0.0 1.0 0.00 0.01 0.01 85 1031.0
20260510111005 53 187 0.0 2.0 0.00 0.01 0.01 85 1030.9
20260510110508 53 188 0.0 2.0 0.00 0.01 0.01 85 1030.7
20260510110010 53 187 0.0 3.0 0.00 0.01 0.01 86 1030.7
20260510105505 53 187 0.0 3.0 0.00 0.01 0.01 86 1030.8
20260510105008 53 188 1.0 2.0 0.00 0.01 0.01 86 1030.7
20260510104505 52 187 0.0 0.0 0.00 0.01 0.01 86 1030.7
20260510104005 52 187 0.0 1.0 0.00 0.01 0.01 86 1030.7
20260510103505 52 187 0.0 1.0 0.00 0.01 0.01 86 1030.7
20260510103006 52 187 0.0 0.0 0.00 0.01 0.01 86 1030.7
20260510102505 52 187 0.0 1.0 0.00 0.01 0.01 86 1030.7
20260510102006 52 186 0.0 1.0 0.00 0.01 0.01 86 1030.7
20260510101505 52 187 0.0 1.0 0.00 0.01 0.01 86 1030.8
20260510101005 52 188 0.0 1.0 0.00 0.01 0.01 86 1030.7
20260510100507 52 187 0.0 1.0 0.00 0.01 0.01 86 1030.7
20260510100009 52 186 0.0 0.0 0.00 0.01 0.01 85 1030.7
20260510095505 52 188 0.0 0.0 0.00 0.01 0.01 85 1030.7
20260510095004 52 187 0.0 0.0 0.00 0.01 0.01 85 1030.7
20260510094509 52 186 0.0 1.0 0.00 0.01 0.01 85 1030.8
20260510094004 52 187 0.0 1.0 0.00 0.01 0.01 85 1030.6
20260510093504 52 187 0.0 0.0 0.00 0.01 0.01 84 1030.5
20260510093006 52 187 0.0 0.0 0.00 0.01 0.01 84 1030.5
20260510092504 52 187 0.0 0.0 0.00 0.01 0.01 84 1030.5
20260510092004 52 187 0.0 0.0 0.00 0.01 0.01 83 1030.5
20260510091509 52 187 0.0 0.0 0.00 0.01 0.01 83 1030.5
20260510091004 52 186 0.0 0.0 0.00 0.01 0.01 83 1030.4
20260510090504 53 187 0.0 0.0 0.00 0.01 0.01 82 1030.4
20260510090008 53 187 0.0 0.0 0.00 0.01 0.01 82 1030.3
20260510085504 53 187 0.0 0.0 0.00 0.01 0.01 82 1030.4
20260510085004 53 188 0.0 0.0 0.00 0.01 0.01 81 1030.4
20260510084504 53 188 0.0 0.0 0.00 0.01 0.01 81 1030.4
20260510084004 54 187 0.0 0.0 0.00 0.01 0.01 81 1030.2
20260510083505 54 186 0.0 0.0 0.00 0.01 0.01 80 1030.4
20260510083004 54 187 0.0 0.0 0.00 0.01 0.01 79 1030.4
20260510082507 54 187 0.0 0.0 0.00 0.01 0.01 79 1030.2
20260510082006 55 188 0.0 0.0 0.00 0.01 0.01 78 1030.1
20260510081507 55 187 0.0 0.0 0.00 0.01 0.01 78 1030.1
20260510081005 55 187 0.0 0.0 0.00 0.01 0.01 77 1030.0
20260510080505 55 187 0.0 0.0 0.00 0.01 0.01 77 1030.1
20260510080006 56 187 0.0 0.0 0.00 0.01 0.01 76 1030.0
20260510075504 56 187 0.0 0.0 0.00 0.01 0.01 75 1030.0
20260510075004 57 188 0.0 0.0 0.00 0.01 0.01 75 1030.0
20260510074504 57 187 0.0 0.0 0.00 0.01 0.01 74 1029.8
20260510074005 57 187 0.0 0.0 0.00 0.01 0.01 74 1029.8
20260510073504 58 187 0.0 0.0 0.00 0.01 0.01 73 1029.7
20260510073007 58 187 0.0 0.0 0.00 0.01 0.01 72 1029.8
20260510072504 58 189 0.0 0.0 0.00 0.01 0.01 72 1029.8
20260510072004 59 187 0.0 1.0 0.00 0.01 0.01 71 1029.8
20260510071504 59 188 0.0 1.0 0.00 0.01 0.01 71 1029.7
20260510071004 59 188 0.0 0.0 0.00 0.01 0.01 70 1029.6
20260510070504 59 188 0.0 2.0 0.00 0.01 0.01 70 1029.7
20260510070007 60 187 0.0 5.0 0.00 0.01 0.01 69 1029.6
20260510065504 60 187 1.0 6.0 0.00 0.01 0.01 69 1029.6
20260510065004 60 187 0.0 6.0 0.00 0.01 0.01 69 1029.5
20260510064504 60 187 1.0 5.0 0.00 0.01 0.01 68 1029.5
20260510064004 60 188 1.0 6.0 0.00 0.01 0.01 67 1029.6
20260510063504 61 187 2.0 9.0 0.00 0.01 0.01 68 1029.5
20260510063004 61 210 3.0 11.0 0.00 0.01 0.01 67 1029.4
20260510062506 61 205 4.0 11.0 0.00 0.01 0.01 67 1029.5
20260510062004 61 191 3.0 9.0 0.00 0.01 0.01 67 1029.4
20260510061504 61 195 2.0 7.0 0.00 0.01 0.01 67 1029.4
20260510061006 61 193 2.0 8.0 0.00 0.01 0.01 67 1029.4
20260510060506 62 191 2.0 9.0 0.00 0.01 0.01 67 1029.4
20260510060012 62 228 4.0 8.0 0.00 0.01 0.01 67 1029.4
20260510055504 62 197 2.0 6.0 0.00 0.01 0.01 66 1029.3
20260510055004 62 197 1.0 6.0 0.00 0.01 0.01 66 1029.3
20260510054504 62 197 1.0 5.0 0.00 0.01 0.01 66 1029.3
20260510054003 62 197 1.0 11.0 0.00 0.01 0.01 66 1029.2
20260510053507 62 199 2.0 11.0 0.00 0.01 0.01 66 1029.1
20260510053004 63 198 0.0 7.0 0.00 0.01 0.01 65 1029.1
20260510052504 63 198 2.0 7.0 0.00 0.01 0.01 65 1029.1
20260510052005 63 201 2.0 6.0 0.00 0.01 0.01 65 1029.0
20260510051504 63 206 2.0 9.0 0.00 0.01 0.01 65 1029.1
20260510051004 63 209 2.0 9.0 0.00 0.01 0.01 66 1029.1
20260510050508 62 229 2.0 7.0 0.00 0.01 0.01 65 1029.1
20260510050009 62 233 3.0 7.0 0.00 0.01 0.01 67 1029.1
20260510045504 62 235 2.0 7.0 0.00 0.01 0.01 66 1029.1
20260510045004 62 233 0.0 7.0 0.00 0.01 0.01 66 1029.1
20260510044507 63 232 2.0 7.0 0.00 0.01 0.01 67 1029.1
20260510044005 63 200 2.0 7.0 0.00 0.01 0.01 67 1029.1
20260510043504 63 199 2.0 7.0 0.00 0.01 0.01 67 1029.0
20260510043005 63 197 4.0 7.0 0.00 0.01 0.01 65 1028.9
20260510042506 63 231 1.0 7.0 0.00 0.01 0.01 65 1029.0
20260510042005 63 222 4.0 8.0 0.00 0.01 0.01 66 1029.0
20260510041504 63 201 2.0 8.0 0.00 0.01 0.01 66 1028.9
20260510041004 63 202 4.0 7.0 0.00 0.01 0.01 64 1029.1
20260510040504 63 205 0.0 7.0 0.00 0.01 0.01 64 1029.0
20260510040007 64 206 4.0 7.0 0.00 0.01 0.01 65 1029.2
20260510035504 63 206 2.0 7.0 0.00 0.01 0.01 65 1029.2
20260510035004 64 214 4.0 7.0 0.00 0.01 0.01 64 1029.2
20260510034504 63 204 1.0 7.0 0.00 0.01 0.01 65 1029.1
20260510034004 63 202 2.0 7.0 0.00 0.01 0.01 67 1029.1
20260510033504 63 201 2.0 6.0 0.00 0.01 0.01 67 1029.2
20260510033004 63 201 3.0 8.0 0.00 0.01 0.01 65 1029.3
20260510032504 63 200 4.0 8.0 0.00 0.01 0.01 65 1029.3
20260510032004 63 198 3.0 8.0 0.00 0.01 0.01 66 1029.2
20260510031509 63 206 1.0 7.0 0.00 0.01 0.01 66 1029.4
20260510031004 63 208 2.0 10.0 0.00 0.01 0.01 65 1029.3
20260510030507 63 207 4.0 10.0 0.00 0.01 0.01 64 1029.5
20260510030010 63 217 3.0 6.0 0.00 0.01 0.01 66 1029.5
20260510025505 63 209 2.0 8.0 0.00 0.01 0.01 67 1029.5
20260510025004 62 206 4.0 8.0 0.00 0.01 0.01 67 1029.6
20260510024504 62 211 2.0 8.0 0.00 0.01 0.01 68 1029.7
20260510024008 62 208 3.0 8.0 0.00 0.01 0.01 68 1029.8
20260510023504 62 207 3.0 7.0 0.00 0.01 0.01 67 1029.8
20260510023004 62 205 3.0 7.0 0.00 0.01 0.01 68 1029.9
20260510022504 62 206 2.0 6.0 0.00 0.01 0.01 68 1029.9
20260510022004 62 206 1.0 3.0 0.00 0.01 0.01 69 1029.9
20260510021504 62 206 0.0 4.0 0.00 0.01 0.01 71 1030.1
20260510021008 62 206 0.0 4.0 0.00 0.01 0.01 68 1030.1
20260510020504 62 209 1.0 5.0 0.00 0.01 0.01 68 1030.2
20260510020007 61 208 2.0 4.0 0.00 0.01 0.01 69 1030.4
20260510015504 62 206 1.0 9.0 0.00 0.01 0.01 69 1030.3
20260510015008 61 207 4.0 9.0 0.00 0.01 0.01 70 1030.4
20260510014506 61 205 2.0 7.0 0.00 0.01 0.01 70 1030.3
20260510014004 61 205 3.0 7.0 0.00 0.01 0.01 70 1030.4
20260510013504 61 203 1.0 4.0 0.00 0.01 0.01 71 1030.5
20260510013004 61 279 2.0 5.0 0.00 0.01 0.01 72 1030.6
20260510012504 61 279 0.0 5.0 0.00 0.01 0.01 71 1030.6
20260510012004 61 279 1.0 7.0 0.00 0.01 0.01 73 1030.7
20260510011504 61 280 2.0 7.0 0.00 0.01 0.01 73 1030.6
20260510011004 61 280 0.0 4.0 0.00 0.01 0.01 75 1030.7
20260510010504 60 281 0.0 4.0 0.00 0.01 0.01 75 1030.7
20260510010007 60 280 0.0 5.0 0.00 0.01 0.01 76 1030.7
20260510005504 60 280 1.0 6.0 0.00 0.01 0.01 78 1030.6
20260510005004 60 280 1.0 5.0 0.00 0.01 0.01 78 1030.7
20260510004504 60 279 3.0 5.0 0.00 0.01 0.01 79 1030.7
20260510004007 60 281 1.0 7.0 0.00 0.01 0.01 82 1030.7
20260510003504 59 280 3.0 7.0 0.00 0.01 0.01 82 1030.7
20260510003004 59 275 0.0 7.0 0.00 0.01 0.01 83 1030.7
20260510002504 59 275 2.0 7.0 0.00 0.01 0.01 86 1030.6
20260510002004 59 276 0.0 6.0 0.00 0.01 0.01 87 1030.6
20260510001504 59 276 1.0 4.0 0.00 0.01 0.01 88 1030.7
20260510001004 58 275 1.0 4.0 0.00 0.01 0.01 89 1030.7
20260510000503 58 277 1.0 4.0 0.00 0.01 0.01 90 1030.8
20260510000010 58 276 0.0 4.0 0.00 0.01 0.01 91 1030.8
20260509235504 57 276 1.0 7.0 0.00 0.01 0.01 92 1030.8
20260509235006 57 276 2.0 7.0 0.00 0.01 0.01 92 1030.7
20260509234504 57 274 0.0 7.0 0.00 0.01 0.01 93 1030.7
20260509234004 57 274 2.0 6.0 0.00 0.01 0.01 93 1030.6
20260509233503 56 274 2.0 6.0 0.00 0.01 0.01 94 1030.6
20260509233004 56 274 2.0 6.0 0.00 0.01 0.01 94 1030.6
20260509232504 56 274 0.0 3.0 0.00 0.01 0.01 94 1030.6
20260509232004 56 274 0.0 2.0 0.00 0.01 0.01 95 1030.6
20260509231504 56 272 0.0 2.0 0.00 0.01 0.01 95 1030.7
20260509231004 56 274 0.0 2.0 0.00 0.01 0.01 95 1030.6
20260509230504 56 274 0.0 2.0 0.00 0.01 0.01 95 1030.6
20260509230005 55 274 0.0 1.0 0.00 0.01 0.01 95 1030.5
20260509225504 55 274 0.0 2.0 0.00 0.01 0.01 95 1030.6
20260509225002 55 275 0.0 2.0 0.00 0.01 0.01 95 1030.5
20260509224503 55 274 0.0 1.0 0.00 0.01 0.01 95 1030.4
20260509224003 55 274 0.0 1.0 0.00 0.01 0.01 95 1030.4
20260509223503 55 274 0.0 2.0 0.00 0.01 0.01 95 1030.4
20260509223003 55 274 0.0 2.0 0.00 0.01 0.01 95 1030.3
20260509222502 55 274 0.0 1.0 0.00 0.01 0.01 95 1030.4
20260509222003 55 274 0.0 1.0 0.00 0.01 0.01 95 1030.3
20260509221503 55 273 0.0 1.0 0.00 0.01 0.01 95 1030.3
20260509221003 55 274 0.0 1.0 0.00 0.01 0.01 95 1030.2
20260509220502 55 274 0.0 1.0 0.00 0.01 0.01 95 1030.0
20260509220006 55 272 0.0 1.0 0.00 0.01 0.01 95 1030.0
20260509215503 55 274 0.0 2.0 0.00 0.02 0.01 95 1029.9
20260509215003 55 274 0.0 2.0 0.00 0.02 0.01 95 1029.7
20260509214505 55 274 0.0 2.0 0.00 0.02 0.01 95 1029.7
20260509214005 55 272 0.0 2.0 0.00 0.02 0.01 95 1029.6
20260509213503 55 274 0.0 2.0 0.00 0.02 0.01 95 1029.5
20260509213003 55 274 0.0 2.0 0.00 0.02 0.01 95 1029.5
20260509212503 55 274 0.0 2.0 0.00 0.02 0.01 95 1029.5
20260509212002 55 274 0.0 1.0 0.00 0.02 0.01 95 1029.4
20260509211508 55 274 0.0 1.0 0.00 0.02 0.01 95 1029.3
20260509211003 55 274 0.0 1.0 0.00 0.02 0.01 95 1029.3
20260509210503 55 273 0.0 1.0 0.00 0.02 0.01 95 1029.3
20260509210010 55 274 0.0 1.0 0.00 0.02 0.01 95 1029.3
20260509205502 55 274 0.0 0.0 0.00 0.02 0.01 95 1029.2
20260509205003 55 274 0.0 1.0 0.00 0.02 0.01 95 1029.2
20260509204503 55 272 0.0 1.0 0.00 0.02 0.01 95 1029.1
20260509204003 55 274 0.0 0.0 0.00 0.02 0.01 95 1029.0
20260509203503 55 274 0.0 1.0 0.00 0.02 0.01 95 1028.8
20260509203005 55 274 0.0 2.0 0.00 0.02 0.01 95 1029.0
20260509202503 55 274 0.0 2.0 0.00 0.02 0.01 95 1028.9
20260509202006 55 274 0.0 2.0 0.00 0.02 0.01 95 1028.8
20260509201503 55 274 0.0 2.0 0.00 0.02 0.01 95 1028.7
20260509201002 55 274 0.0 2.0 0.00 0.02 0.01 95 1028.7
20260509200503 55 273 0.0 3.0 0.00 0.02 0.01 95 1028.6
20260509200005 55 273 1.0 3.0 0.00 0.02 0.01 95 1028.6
20260509195502 55 274 0.0 3.0 0.00 0.02 0.01 95 1028.6
20260509195005 55 273 0.0 3.0 0.00 0.02 0.01 95 1028.5
20260509194502 55 274 0.0 3.0 0.00 0.02 0.01 95 1028.5
20260509194004 55 274 0.0 4.0 0.00 0.02 0.01 95 1028.4
20260509193506 55 274 0.0 3.0 0.00 0.02 0.01 94 1028.4
20260509193007 55 274 0.0 3.0 0.00 0.02 0.01 95 1028.4
20260509192502 55 273 0.0 3.0 0.00 0.02 0.01 94 1028.3
20260509192005 55 274 0.0 2.0 0.00 0.02 0.01 94 1028.2
20260509191502 55 274 0.0 2.0 0.00 0.02 0.01 94 1028.3
20260509191002 55 273 0.0 3.0 0.00 0.02 0.01 94 1028.1
20260509190502 55 273 1.0 3.0 0.00 0.02 0.01 94 1028.1
20260509190006 55 273 0.0 4.0 0.00 0.02 0.01 94 1028.1
20260509185503 55 272 0.0 4.0 0.00 0.02 0.01 94 1028.0
20260509185002 55 274 0.0 2.0 0.00 0.02 0.01 94 1028.0
20260509184504 55 274 0.0 3.0 0.00 0.02 0.01 94 1028.0
20260509184002 55 274 0.0 4.0 0.00 0.02 0.01 94 1028.0
20260509183503 55 273 0.0 4.0 0.00 0.02 0.01 94 1028.0
20260509183003 55 272 0.0 2.0 0.01 0.02 0.01 94 1027.9
20260509182504 55 273 0.0 3.0 0.01 0.02 0.01 94 1027.9
20260509182003 55 272 1.0 3.0 0.01 0.02 0.01 94 1027.9
20260509181503 55 272 0.0 3.0 0.01 0.02 0.01 94 1027.7
20260509181003 55 274 0.0 3.0 0.01 0.02 0.01 94 1027.8
20260509180503 55 274 0.0 2.0 0.01 0.02 0.01 94 1027.7
20260509180005 55 274 0.0 6.0 0.01 0.02 0.01 94 1027.7